Wind_Speed
33 33 32 33 33 33 35 35 36 35 34 33 33 33 32 33 33 33 33 33 33 33 33 32 32 32 31 31 31 31 31 31 32 32 33 34 34 34 35 35 36 36 37 37
33 33 33 33 33 33 34 35 36 36 36 35 34 34 34 34 34 33 33 33 33 33 33 33 33 32 32 31 31 32 32 32 33 33 33 34 34 34 35 35 35 36 37 37
35 34 35 36 34 34 34 34 35 36 35 34 34 34 34 34 34 34 34 34 34 33 33 34 34 33 33 33 33 33 34 34 35 35 34 34 34 35 35 36 36 36 37 38
34 34 35 35 34 34 34 34 34 35 34 34 33 33 34 33 33 34 34 34 33 34 34 34 34 34 34 34 34 34 34 35 35 36 36 35 35 36 36 36 36 36 37 37
31 31 32 33 33 33 33 34 34 34 33 33 33 33 34 34 34 34 34 34 33 34 35 35 35 35 35 35 35 35 36 36 36 36 36 36 36 36 37 37 38 38 38 38
30 30 31 31 31 31 32 32 32 32 32 32 32 33 33 33 33 34 34 34 34 34 34 35 35 36 36 36 36 36 37 37 38 37 37 37 38 38 38 39 39 39 39 39
28 29 30 30 29 29 30 31 30 31 31 31 31 32 32 33 33 33 34 34 34 35 35 35 35 36 36 36 37 37 37 37 37 37 37 38 38 38 38 39 39 39 39 39
28 29 29 29 29 30 30 31 30 30 30 31 32 32 33 34 34 34 34 34 35 35 35 35 35 36 36 37 37 37 37 37 36 37 37 37 37 37 37 37 38 37 37 38
27 28 29 30 30 29 30 31 31 31 30 31 31 32 34 34 34 34 34 35 35 35 36 36 36 37 37 38 37 37 36 36 36 37 37 37 37 37 37 37 37 37 37 37
27 27 28 30 30 31 31 31 31 32 31 31 31 31 32 33 33 34 34 35 36 37 37 37 37 37 38 38 37 37 37 37 37 36 36 37 37 38 38 38 38 38 37 37
28 28 29 30 30 30 30 31 31 31 30 31 31 32 32 33 32 33 33 34 35 36 36 36 36 37 36 36 36 36 36 37 37 37 36 36 36 36 36 36 37 37 36 37
29 29 29 29 29 29 29 29 29 30 30 30 30 30 30 30 30 30 31 32 32 33 34 34 34 34 35 35 35 35 35 35 36 35 35 35 35 35 35 36 35 36 36 37
29 29 30 29 29 28 28 27 27 27 27 27 27 27 27 28 28 28 29 29 30 30 31 31 31 32 32 32 32 32 32 33 33 33 34 34 34 34 34 34 34 34 35 36
29 29 29 28 28 27 27 26 26 26 26 26 26 26 26 26 27 27 27 28 28 28 29 29 29 29 30 30 30 31 31 31 31 31 32 32 33 33 33 33 34 34 34 35
27 28 27 26 25 25 25 25 25 25 25 25 25 25 25 25 26 26 27 27 27 27 28 28 29 29 29 30 30 30 30 30 30 30 31 31 32 32 32 32 33 33 33 34
24 24 24 24 24 25 25 25 25 24 25 25 25 25 25 26 26 26 27 28 28 28 28 29 29 29 29 29 29 30 30 30 30 31 31 31 31 31 31 31 31 32 32 32
23 22 22 23 23 24 24 25 25 24 24 24 25 25 25 26 26 26 27 27 28 28 28 29 29 29 29 29 29 29 29 29 30 30 30 30 30 30 30 30 30 30 30 31
22 22 22 22 22 23 23 24 24 24 24 25 25 26 26 26 26 26 27 27 27 27 27 27 27 27 28 27 27 28 28 28 28 29 29 29 29 29 29 29 29 29 29 29
21 21 21 22 21 21 21 22 23 23 24 24 25 25 26 26 26 26 26 26 26 26 26 26 26 25 25 25 26 26 27 27 28 28 28 29 29 30 30 29 29 29 29 29
20 20 20 20 21 21 21 22 22 23 24 24 24 25 25 25 26 26 26 26 26 26 26 25 25 24 24 24 25 25 25 26 27 28 28 29 29 29 30 30 29 29 29 29
18 19 19 19 20 20 21 21 22 23 23 24 24 24 24 25 25 25 25 25 25 26 25 25 24 24 24 25 25 26 26 26 27 28 28 29 29 29 29 29 29 29 29 29
19 19 19 19 19 19 20 21 21 22 22 23 24 24 25 25 25 25 25 25 26 26 25 25 26 26 26 26 26 26 27 27 27 27 27 28 28 28 28 29 29 29 29 29
18 18 19 19 20 20 20 21 21 22 22 22 23 23 24 24 25 25 25 26 26 26 26 26 26 26 26 26 27 27 27 27 27 27 27 27 27 27 28 28 28 28 28 28
18 18 19 19 20 20 21 21 22 22 22 22 23 23 24 24 24 24 24 25 25 25 25 25 25 25 25 26 26 27 27 28 28 28 28 27 27 27 27 27 26 26 27 27
18 19 19 19 20 20 21 21 22 22 22 22 22 23 23 23 23 23 23 23 23 23 23 23 24 24 25 25 26 26 27 27 28 28 27 27 27 27 26 26 25 25 26 26
18 19 19 19 19 19 20 20 20 20 20 20 21 21 21 21 21 21 22 22 23 23 23 23 23 23 23 24 24 24 25 25 25 26 26 26 26 26 26 26 25 25 25 26
18 18 18 18 19 19 19 18 18 18 18 19 19 20 20 21 21 21 22 22 22 22 23 23 23 23 23 23 24 24 23 23 23 24 24 24 25 25 25 25 25 25 25 25
Wind_Direction
266 264 264 262 260 259 259 261 262 263 264 264 265 265 264 262 261 263 263 261 260 260 260 261 263 263 265 265 265 265 265 265 263 264 265 265 266 266 265 264 265 265 265 264
265 264 263 263 261 260 260 260 262 262 262 263 265 265 264 262 262 262 262 261 259 260 260 260 262 263 264 266 266 266 266 266 265 265 266 266 267 268 267 266 266 267 266 265
266 264 263 262 263 263 262 261 261 262 264 264 265 264 263 262 261 261 261 261 260 261 262 262 262 263 264 265 265 265 266 267 267 266 266 266 267 267 268 267 268 268 267 265
268 265 264 265 265 265 265 263 262 263 264 265 265 264 263 262 261 262 262 262 262 263 263 264 263 263 264 265 266 266 267 268 269 269 268 268 267 266 267 268 269 269 269 266
268 267 267 266 266 267 267 265 266 266 264 264 264 262 262 262 262 262 262 263 264 264 264 265 265 264 264 265 267 267 268 270 270 270 269 268 268 267 267 268 269 270 270 269
267 266 266 268 267 266 266 266 266 267 266 265 264 263 262 262 262 262 262 263 264 265 265 265 265 266 266 266 267 269 270 270 270 270 268 268 268 269 269 269 269 269 270 271
265 265 267 268 267 265 264 264 265 266 267 266 266 266 265 264 263 263 263 264 265 266 266 267 267 266 267 268 268 269 270 271 271 271 270 269 269 270 272 271 271 270 271 270
265 264 265 265 264 264 265 265 265 267 268 268 268 268 268 267 267 266 265 266 267 267 267 267 268 268 268 269 270 270 271 271 271 271 271 270 270 270 271 272 272 273 273 272
267 266 266 265 264 263 264 265 266 268 270 269 269 269 269 269 269 269 268 268 268 268 268 268 269 269 269 270 271 271 271 271 271 270 270 271 271 271 271 271 272 273 274 274
265 264 265 264 264 264 264 264 265 268 270 270 270 269 269 269 270 270 269 270 270 269 269 270 270 271 270 270 271 271 270 270 270 270 271 271 272 273 273 272 273 273 275 275
266 266 266 264 263 264 265 264 265 266 269 269 269 269 269 268 268 269 270 271 270 270 270 270 270 271 271 271 271 270 270 270 270 270 271 272 273 274 274 273 273 274 275 275
268 267 268 266 265 263 263 263 264 266 268 270 270 269 269 268 267 268 269 270 270 271 271 270 270 271 271 271 270 270 270 270 270 270 271 272 274 275 275 274 273 275 276 276
268 267 268 268 266 264 263 264 265 266 267 269 268 268 268 268 268 269 269 271 272 272 272 271 271 271 270 270 269 269 270 270 271 272 272 273 274 275 275 274 275 276 276 276
267 266 266 267 267 266 265 266 265 266 267 268 269 268 269 269 270 271 272 274 274 274 273 272 271 271 270 269 269 270 270 270 271 272 273 275 276 276 275 274 275 276 277 277
267 266 266 266 267 265 265 266 266 267 268 268 269 270 270 270 271 272 273 275 276 277 276 275 274 272 271 271 270 270 269 270 271 272 273 276 277 277 276 276 277 277 278 277
270 269 267 266 267 266 265 266 267 269 269 269 269 270 270 271 272 274 275 275 276 278 278 277 275 274 272 271 272 270 270 270 271 272 274 276 277 277 277 277 278 279 279 278
271 269 267 266 267 267 267 267 267 268 268 268 269 270 271 272 274 275 276 277 278 279 280 278 276 275 273 272 272 271 271 272 273 273 274 275 275 275 275 277 278 280 280 278
273 271 269 268 268 269 268 267 267 267 267 268 269 270 272 273 275 276 276 277 278 279 280 280 279 276 275 273 272 273 273 274 274 275 275 275 274 273 275 277 278 279 279 278
276 274 272 271 270 270 270 268 267 267 268 269 270 272 273 275 276 277 277 276 277 279 280 280 279 277 275 274 273 273 274 274 275 276 276 276 275 275 275 276 277 278 278 277
277 276 275 274 274 274 272 271 270 270 271 272 273 273 274 276 278 278 278 278 278 279 280 279 278 277 276 275 275 275 276 277 276 276 276 275 275 276 276 276 276 277 277 276
278 279 279 279 277 275 273 273 274 274 274 275 275 276 276 278 278 278 278 278 278 278 279 279 278 277 277 276 276 277 278 278 279 278 278 277 277 277 277 277 277 277 277 278
279 280 279 278 277 276 275 276 276 276 277 277 277 277 277 278 278 278 278 278 278 278 278 278 278 278 278 278 278 278 279 280 280 280 280 279 278 278 278 279 278 278 278 278
278 278 278 277 278 278 279 279 278 278 279 280 280 280 279 279 279 279 279 279 279 279 278 278 278 278 278 279 279 279 280 280 281 281 281 280 280 280 280 280 279 279 279 280
282 281 281 282 283 283 283 282 281 282 283 283 283 282 281 281 281 281 281 282 282 282 281 280 279 278 279 279 280 280 280 280 281 281 281 281 281 281 281 281 280 280 281 281
286 286 285 286 286 286 285 284 283 283 284 285 284 283 282 282 282 282 283 283 284 283 283 282 281 281 281 281 282 282 281 281 281 281 281 281 280 281 281 281 281 281 281 281
290 290 289 288 288 289 289 287 287 287 286 286 285 285 285 284 284 284 284 284 285 284 284 284 284 283 283 283 284 284 284 283 281 280 280 280 280 280 281 281 281 281 282 282
291 291 291 291 292 293 292 290 288 287 287 288 288 288 288 287 286 286 286 286 285 284 284 284 285 285 285 286 287 287 286 284 283 282 281 280 279 279 281 282 282 282 283 283
Height
5581 5582 5582 5583 5584 5586 5587 5588 5589 5591 5591 5592 5592 5592 5593 5594 5596 5596 5597 5598 5599 5600 5601 5602 5603 5604 5605 5605 5606 5606 5607 5607 5608 5608 5608 5609 5609 5610 5610 5610 5610 5611 5611 5611
5571 5572 5572 5573 5575 5576 5578 5579 5580 5581 5582 5583 5583 5583 5584 5585 5586 5587 5588 5589 5590 5590 5591 5592 5594 5595 5595 5596 5596 5597 5598 5598 5598 5599 5599 5599 5599 5599 5600 5600 5600 5600 5600 5600
5561 5563 5562 5563 5567 5568 5569 5569 5570 5571 5573 5573 5574 5574 5574 5575 5576 5577 5578 5579 5580 5581 5582 5583 5584 5585 5586 5587 5587 5588 5588 5588 5588 5589 5589 5589 5589 5589 5589 5589 5589 5589 5589 5589
5551 5553 5552 5558 5558 5558 5559 5560 5561 5561 5562 5563 5564 5564 5565 5566 5567 5568 5569 5569 5570 5571 5572 5573 5574 5575 5576 5577 5577 5578 5578 5578 5578 5578 5578 5579 5579 5579 5579 5579 5579 5579 5579 5579
5541 5541 5543 5547 5548 5549 5549 5550 5552 5552 5553 5554 5554 5555 5556 5557 5558 5558 5559 5560 5561 5562 5562 5563 5564 5565 5566 5566 5567 5567 5568 5568 5568 5568 5568 5568 5568 5568 5568 5568 5568 5568 5568 5568
5533 5533 5534 5538 5539 5539 5540 5540 5542 5543 5544 5545 5545 5546 5548 5547 5548 5549 5549 5550 5551 5552 5552 5553 5554 5554 5555 5556 5556 5556 5557 5557 5557 5557 5557 5557 5557 5557 5557 5557 5557 5557 5557 5557
5525 5525 5526 5529 5530 5531 5533 5534 5534 5534 5535 5535 5536 5537 5538 5538 5538 5539 5539 5540 5541 5542 5542 5543 5543 5544 5544 5544 5545 5545 5545 5545 5545 5545 5546 5546 5546 5546 5546 5546 5546 5546 5546 5545
5517 5517 5521 5521 5521 5523 5523 5524 5524 5525 5526 5526 5527 5527 5527 5528 5528 5529 5529 5530 5531 5531 5532 5532 5532 5533 5533 5533 5534 5534 5534 5534 5534 5534 5534 5535 5535 5535 5534 5534 5534 5534 5534 5534
5510 5512 5511 5512 5512 5513 5514 5515 5516 5516 5517 5517 5517 5518 5518 5518 5518 5519 5519 5520 5520 5520 5521 5521 5521 5522 5522 5522 5522 5522 5522 5523 5523 5523 5523 5523 5523 5523 5523 5523 5523 5523 5522 5522
5501 5502 5503 5503 5504 5505 5505 5506 5507 5507 5508 5508 5508 5508 5509 5509 5509 5509 5509 5509 5509 5510 5510 5510 5510 5510 5510 5511 5511 5511 5511 5511 5511 5512 5512 5512 5512 5512 5512 5511 5511 5511 5511 5511
5493 5494 5494 5495 5496 5496 5497 5497 5498 5498 5498 5498 5499 5499 5499 5499 5499 5499 5499 5499 5499 5499 5499 5499 5499 5499 5499 5499 5499 5499 5499 5499 5499 5500 5500 5500 5500 5500 5500 5500 5499 5499 5499 5499
5485 5486 5486 5487 5487 5487 5488 5489 5489 5489 5489 5489 5490 5490 5490 5490 5489 5489 5489 5489 5488 5488 5488 5488 5488 5488 5488 5488 5488 5488 5488 5488 5488 5488 5488 5489 5489 5489 5488 5488 5488 5488 5487 5487
5476 5477 5477 5478 5478 5478 5479 5480 5480 5481 5481 5481 5481 5481 5481 5481 5481 5480 5480 5480 5479 5479 5478 5478 5478 5478 5477 5477 5477 5477 5478 5478 5477 5478 5478 5478 5478 5478 5478 5478 5477 5477 5476 5476
5468 5468 5469 5470 5470 5470 5471 5471 5472 5472 5472 5472 5472 5472 5472 5472 5472 5472 5471 5471 5470 5469 5469 5468 5468 5468 5467 5467 5467 5467 5468 5467 5467 5467 5467 5467 5467 5467 5467 5467 5467 5466 5466 5465
5460 5460 5461 5461 5462 5462 5463 5463 5464 5464 5464 5464 5464 5464 5464 5464 5464 5463 5463 5462 5461 5461 5460 5459 5458 5458 5458 5458 5458 5458 5458 5458 5458 5458 5458 5458 5457 5457 5457 5457 5456 5456 5455 5454
5453 5453 5453 5454 5454 5455 5455 5456 5456 5456 5456 5456 5456 5456 5456 5456 5455 5455 5454 5454 5453 5452 5451 5450 5449 5449 5448 5448 5448 5448 5448 5448 5448 5448 5448 5448 5447 5447 5447 5446 5446 5445 5445 5444
5446 5446 5446 5447 5447 5447 5447 5448 5448 5448 5448 5448 5448 5448 5448 5448 5447 5447 5446 5445 5444 5443 5442 5441 5440 5439 5439 5439 5439 5439 5439 5439 5439 5439 5438 5438 5438 5437 5437 5437 5436 5435 5435 5434
5439 5439 5439 5439 5440 5440 5440 5440 5440 5440 5440 5440 5440 5440 5440 5439 5439 5438 5438 5437 5436 5435 5434 5433 5431 5431 5430 5430 5430 5430 5430 5430 5430 5429 5429 5428 5428 5428 5428 5427 5427 5426 5425 5424
5433 5433 5433 5433 5433 5433 5433 5433 5433 5432 5432 5432 5432 5432 5432 5431 5431 5430 5429 5429 5428 5427 5426 5424 5423 5422 5422 5421 5421 5421 5421 5421 5420 5420 5419 5419 5419 5419 5418 5418 5417 5416 5416 5415
5427 5427 5427 5426 5426 5426 5426 5426 5426 5425 5425 5425 5424 5424 5424 5423 5423 5422 5421 5421 5420 5419 5418 5416 5416 5415 5414 5414 5413 5413 5413 5412 5412 5411 5410 5410 5409 5409 5408 5408 5407 5407 5406 5405
5422 5421 5421 5420 5420 5419 5419 5419 5419 5418 5418 5417 5417 5416 5416 5415 5414 5414 5413 5413 5412 5410 5409 5409 5408 5407 5406 5406 5405 5405 5404 5403 5403 5402 5401 5401 5400 5399 5399 5398 5397 5397 5396 5395
5417 5416 5415 5415 5414 5414 5413 5412 5412 5411 5411 5410 5409 5408 5408 5407 5407 5406 5405 5405 5404 5402 5402 5401 5400 5399 5398 5398 5397 5396 5396 5395 5394 5393 5392 5391 5391 5390 5390 5389 5388 5387 5386 5385
5411 5410 5410 5409 5408 5408 5407 5406 5405 5404 5403 5402 5401 5401 5400 5399 5398 5398 5397 5396 5395 5394 5393 5392 5391 5391 5390 5389 5388 5388 5387 5386 5385 5385 5384 5383 5382 5381 5380 5379 5378 5378 5377 5376
5406 5405 5404 5403 5402 5401 5400 5399 5398 5397 5396 5395 5394 5393 5392 5391 5390 5389 5389 5387 5386 5385 5384 5383 5383 5382 5381 5380 5379 5379 5378 5377 5376 5375 5375 5374 5373 5372 5371 5370 5369 5369 5368 5367
5400 5399 5398 5397 5396 5394 5393 5392 5391 5390 5389 5388 5386 5385 5384 5383 5383 5381 5380 5379 5378 5377 5376 5375 5374 5373 5372 5371 5370 5369 5368 5367 5366 5366 5365 5364 5364 5363 5362 5362 5361 5360 5359 5358
5395 5394 5392 5391 5389 5388 5387 5385 5384 5383 5382 5381 5379 5378 5377 5376 5375 5374 5373 5372 5370 5369 5368 5367 5366 5365 5364 5363 5361 5360 5359 5358 5357 5356 5356 5355 5355 5354 5354 5353 5352 5351 5350 5350
5389 5388 5386 5385 5383 5382 5380 5379 5378 5376 5375 5374 5373 5371 5370 5369 5368 5366 5365 5364 5363 5362 5361 5359 5358 5357 5356 5355 5353 5352 5350 5349 5348 5347 5347 5346 5346 5345 5345 5344 5344 5343 5342 5341